7 * 24
多渠道服务支持
STARLINK-37060(NORAD编号68150)是SpaceX星链(Starlink)卫星互联网星座中的一颗低轨通信卫星。作为星链大规模组网的组成部分,它运行在近地轨道,为全球范围内提供高速宽带互联网接入服务,尤其支持偏远地区、移动载体等场景的网络连接。 2026年SpaceX启动四千颗星链卫星降轨计划,将轨道高度从550公里降至480公里,STARLINK-37060大概率包含在此次调整中,降轨旨在降低碰撞风险,减少太空碎片,提升太空运行安全性。该卫星采用成熟的星链技术设计,配备相控阵天线,保障通信容量与传输效率。
美国
(US)
| 数据来源 | 国际轨道数据 | AOE轨道数据 |
| 星历时间 | 2026-05-24T08:26:20+0800 1天前 查看轨道信息 | 2026-05-24T02:00:00+0800 1天前 查看轨道信息 |
| 半长轴 | 6843.674km | 6843.666km |
| 偏心率 | 0.0001576 | 0.0001211 |
| 轨道倾角 | 97.284° | 97.286° |
| 近地点辐角 | 96.968° | 103.715° |
| 升交点赤经 | 165.724° | 165.457° |
| 平近点角 | 263.174° | 216.368° |
| 近地点 | 464.458km | 464.7km |
| 远地点 | 466.616km | 466.358km |
| 周期 | 93.906分钟 | 93.906分钟 |
| 每日圈数 | 15.334471 | 15.334499 |